Year,Month,Day,Hour,Minute,Value (Times are PST for insolation in W/m^2)
2011,08,02,00,00,0.00
2011,08,02,00,01,0.00
2011,08,02,00,02,0.00
2011,08,02,00,03,0.00
2011,08,02,00,04,0.00
2011,08,02,00,05,0.00
2011,08,02,00,06,0.00
2011,08,02,00,07,0.00
2011,08,02,00,08,0.00
2011,08,02,00,09,0.00
2011,08,02,00,10,0.00
2011,08,02,00,11,0.00
2011,08,02,00,12,0.00
2011,08,02,00,13,0.00
2011,08,02,00,14,0.00
2011,08,02,00,15,0.00
2011,08,02,00,16,0.00
2011,08,02,00,17,0.00
2011,08,02,00,18,0.00
2011,08,02,00,19,0.00
2011,08,02,00,20,0.00
2011,08,02,00,21,0.00
2011,08,02,00,22,0.00
2011,08,02,00,23,0.00
2011,08,02,00,24,0.00
2011,08,02,00,25,0.00
2011,08,02,00,26,0.00
2011,08,02,00,27,0.00
2011,08,02,00,28,0.00
2011,08,02,00,29,0.00
2011,08,02,00,30,0.00
2011,08,02,00,31,0.00
2011,08,02,00,32,0.00
2011,08,02,00,33,0.00
2011,08,02,00,34,0.00
2011,08,02,00,35,0.00
2011,08,02,00,36,0.00
2011,08,02,00,37,0.00
2011,08,02,00,38,0.00
2011,08,02,00,39,0.00
2011,08,02,00,40,0.00
2011,08,02,00,41,0.00
2011,08,02,00,42,0.00
2011,08,02,00,43,0.00
2011,08,02,00,44,0.00
2011,08,02,00,45,0.00
2011,08,02,00,46,0.00
2011,08,02,00,47,0.00
2011,08,02,00,48,0.00
2011,08,02,00,49,0.00
2011,08,02,00,50,0.00
2011,08,02,00,51,0.00
2011,08,02,00,52,0.00
2011,08,02,00,53,0.00
2011,08,02,00,54,0.00
2011,08,02,00,55,0.00
2011,08,02,00,56,0.00
2011,08,02,00,57,0.00
2011,08,02,00,58,0.00
2011,08,02,00,59,0.00
2011,08,02,01,00,0.00
2011,08,02,01,01,0.00
2011,08,02,01,02,0.00
2011,08,02,01,03,0.00
2011,08,02,01,04,0.00
2011,08,02,01,05,0.00
2011,08,02,01,06,0.00
2011,08,02,01,07,0.00
2011,08,02,01,08,0.00
2011,08,02,01,09,0.00
2011,08,02,01,10,0.00
2011,08,02,01,11,0.00
2011,08,02,01,12,0.00
2011,08,02,01,13,0.00
2011,08,02,01,14,0.00
2011,08,02,01,15,0.00
2011,08,02,01,16,0.00
2011,08,02,01,17,0.00
2011,08,02,01,18,0.00
2011,08,02,01,19,0.00
2011,08,02,01,20,0.00
2011,08,02,01,21,0.00
2011,08,02,01,22,0.00
2011,08,02,01,23,0.00
2011,08,02,01,24,0.00
2011,08,02,01,25,0.00
2011,08,02,01,26,0.00
2011,08,02,01,27,0.00
2011,08,02,01,28,0.00
2011,08,02,01,29,0.00
2011,08,02,01,30,0.00
2011,08,02,01,31,0.00
2011,08,02,01,32,0.00
2011,08,02,01,33,0.00
2011,08,02,01,34,0.00
2011,08,02,01,35,0.00
2011,08,02,01,36,0.00
2011,08,02,01,37,0.00
2011,08,02,01,38,0.00
2011,08,02,01,39,0.00
2011,08,02,01,40,0.00
2011,08,02,01,41,0.00
2011,08,02,01,42,0.00
2011,08,02,01,43,0.00
2011,08,02,01,44,0.00
2011,08,02,01,45,0.00
2011,08,02,01,46,0.00
2011,08,02,01,47,0.00
2011,08,02,01,48,0.00
2011,08,02,01,49,0.00
2011,08,02,01,50,0.00
2011,08,02,01,51,0.00
2011,08,02,01,52,0.00
2011,08,02,01,53,0.00
2011,08,02,01,54,0.00
2011,08,02,01,55,0.00
2011,08,02,01,56,0.00
2011,08,02,01,57,0.00
2011,08,02,01,58,0.00
2011,08,02,01,59,0.00
2011,08,02,02,00,0.00
2011,08,02,02,01,0.00
2011,08,02,02,02,0.00
2011,08,02,02,03,0.00
2011,08,02,02,04,0.00
2011,08,02,02,05,0.00
2011,08,02,02,06,0.00
2011,08,02,02,07,0.00
2011,08,02,02,08,0.00
2011,08,02,02,09,0.00
2011,08,02,02,10,0.00
2011,08,02,02,11,0.00
2011,08,02,02,12,0.00
2011,08,02,02,13,0.00
2011,08,02,02,14,0.00
2011,08,02,02,15,0.00
2011,08,02,02,16,0.00
2011,08,02,02,17,0.00
2011,08,02,02,18,0.00
2011,08,02,02,19,0.00
2011,08,02,02,20,0.00
2011,08,02,02,21,0.00
2011,08,02,02,22,0.00
2011,08,02,02,23,0.00
2011,08,02,02,24,0.00
2011,08,02,02,25,0.00
2011,08,02,02,26,0.00
2011,08,02,02,27,0.00
2011,08,02,02,28,0.00
2011,08,02,02,29,0.00
2011,08,02,02,30,0.00
2011,08,02,02,31,0.00
2011,08,02,02,32,0.00
2011,08,02,02,33,0.00
2011,08,02,02,34,0.00
2011,08,02,02,35,0.00
2011,08,02,02,36,0.00
2011,08,02,02,37,0.00
2011,08,02,02,38,0.00
2011,08,02,02,39,0.00
2011,08,02,02,40,0.00
2011,08,02,02,41,0.00
2011,08,02,02,42,0.00
2011,08,02,02,43,0.00
2011,08,02,02,44,0.00
2011,08,02,02,45,0.00
2011,08,02,02,46,0.00
2011,08,02,02,47,0.00
2011,08,02,02,48,0.00
2011,08,02,02,49,0.00
2011,08,02,02,50,0.00
2011,08,02,02,51,0.00
2011,08,02,02,52,0.00
2011,08,02,02,53,0.00
2011,08,02,02,54,0.00
2011,08,02,02,55,0.00
2011,08,02,02,56,0.00
2011,08,02,02,57,0.00
2011,08,02,02,58,0.00
2011,08,02,02,59,0.00
2011,08,02,03,00,0.00
2011,08,02,03,01,0.00
2011,08,02,03,02,0.00
2011,08,02,03,03,0.00
2011,08,02,03,04,0.00
2011,08,02,03,05,0.00
2011,08,02,03,06,0.00
2011,08,02,03,07,0.00
2011,08,02,03,08,0.00
2011,08,02,03,09,0.00
2011,08,02,03,10,0.00
2011,08,02,03,11,0.00
2011,08,02,03,12,0.00
2011,08,02,03,13,0.00
2011,08,02,03,14,0.00
2011,08,02,03,15,0.00
2011,08,02,03,16,0.00
2011,08,02,03,17,0.00
2011,08,02,03,18,0.00
2011,08,02,03,19,0.00
2011,08,02,03,20,0.00
2011,08,02,03,21,0.00
2011,08,02,03,22,0.00
2011,08,02,03,23,0.00
2011,08,02,03,24,0.00
2011,08,02,03,25,0.00
2011,08,02,03,26,0.00
2011,08,02,03,27,0.00
2011,08,02,03,28,0.00
2011,08,02,03,29,0.00
2011,08,02,03,30,0.00
2011,08,02,03,31,0.00
2011,08,02,03,32,0.00
2011,08,02,03,33,0.00
2011,08,02,03,34,0.00
2011,08,02,03,35,0.00
2011,08,02,03,36,0.00
2011,08,02,03,37,0.00
2011,08,02,03,38,0.00
2011,08,02,03,39,0.00
2011,08,02,03,40,0.00
2011,08,02,03,41,0.00
2011,08,02,03,42,0.00
2011,08,02,03,43,0.00
2011,08,02,03,44,0.00
2011,08,02,03,45,0.00
2011,08,02,03,46,0.00
2011,08,02,03,47,0.00
2011,08,02,03,48,0.00
2011,08,02,03,49,0.00
2011,08,02,03,50,0.00
2011,08,02,03,51,0.00
2011,08,02,03,52,0.00
2011,08,02,03,53,0.00
2011,08,02,03,54,0.00
2011,08,02,03,55,0.00
2011,08,02,03,56,0.00
2011,08,02,03,57,0.00
2011,08,02,03,58,0.00
2011,08,02,03,59,0.00
2011,08,02,04,00,0.00
2011,08,02,04,01,0.00
2011,08,02,04,02,0.00
2011,08,02,04,03,0.00
2011,08,02,04,04,0.00
2011,08,02,04,05,0.00
2011,08,02,04,06,0.00
2011,08,02,04,07,0.00
2011,08,02,04,08,0.00
2011,08,02,04,09,0.00
2011,08,02,04,10,0.00
2011,08,02,04,11,0.00
2011,08,02,04,12,0.00
2011,08,02,04,13,0.00
2011,08,02,04,14,0.00
2011,08,02,04,15,0.00
2011,08,02,04,16,0.00
2011,08,02,04,17,0.00
2011,08,02,04,18,0.00
2011,08,02,04,19,0.00
2011,08,02,04,20,0.00
2011,08,02,04,21,0.00
2011,08,02,04,22,0.00
2011,08,02,04,23,0.00
2011,08,02,04,24,0.00
2011,08,02,04,25,0.00
2011,08,02,04,26,0.00
2011,08,02,04,27,0.00
2011,08,02,04,28,0.00
2011,08,02,04,29,0.00
2011,08,02,04,30,0.00
2011,08,02,04,31,0.00
2011,08,02,04,32,0.00
2011,08,02,04,33,0.00
2011,08,02,04,34,0.00
2011,08,02,04,35,0.00
2011,08,02,04,36,0.00
2011,08,02,04,37,0.00
2011,08,02,04,38,0.00
2011,08,02,04,39,0.00
2011,08,02,04,40,0.00
2011,08,02,04,41,0.00
2011,08,02,04,42,0.00
2011,08,02,04,43,0.00
2011,08,02,04,44,0.00
2011,08,02,04,45,0.00
2011,08,02,04,46,0.00
2011,08,02,04,47,0.00
2011,08,02,04,48,0.00
2011,08,02,04,49,0.00
2011,08,02,04,50,0.00
2011,08,02,04,51,0.00
2011,08,02,04,52,0.00
2011,08,02,04,53,0.00
2011,08,02,04,54,0.00
2011,08,02,04,55,0.00
2011,08,02,04,56,0.00
2011,08,02,04,57,0.00
2011,08,02,04,58,0.00
2011,08,02,04,59,0.00
2011,08,02,05,00,0.00
2011,08,02,05,01,0.00
2011,08,02,05,02,0.00
2011,08,02,05,03,0.00
2011,08,02,05,04,0.00
2011,08,02,05,05,0.00
2011,08,02,05,06,0.00
2011,08,02,05,07,0.00
2011,08,02,05,08,0.00
2011,08,02,05,09,0.00
2011,08,02,05,10,0.00
2011,08,02,05,11,0.00
2011,08,02,05,12,0.00
2011,08,02,05,13,0.00
2011,08,02,05,14,0.00
2011,08,02,05,15,0.00
2011,08,02,05,16,0.00
2011,08,02,05,17,0.00
2011,08,02,05,18,0.00
2011,08,02,05,19,0.00
2011,08,02,05,20,0.00
2011,08,02,05,21,0.00
2011,08,02,05,22,0.00
2011,08,02,05,23,0.00
2011,08,02,05,24,0.00
2011,08,02,05,25,0.00
2011,08,02,05,26,0.00
2011,08,02,05,27,0.00
2011,08,02,05,28,0.00
2011,08,02,05,29,0.00
2011,08,02,05,30,0.00
2011,08,02,05,31,0.00
2011,08,02,05,32,0.00
2011,08,02,05,33,0.00
2011,08,02,05,34,0.00
2011,08,02,05,35,0.00
2011,08,02,05,36,0.00
2011,08,02,05,37,0.00
2011,08,02,05,38,0.00
2011,08,02,05,39,0.00
2011,08,02,05,40,0.00
2011,08,02,05,41,0.00
2011,08,02,05,42,0.00
2011,08,02,05,43,0.00
2011,08,02,05,44,0.00
2011,08,02,05,45,0.00
2011,08,02,05,46,0.00
2011,08,02,05,47,0.00
2011,08,02,05,48,0.00
2011,08,02,05,49,0.00
2011,08,02,05,50,0.00
2011,08,02,05,51,0.00
2011,08,02,05,52,0.00
2011,08,02,05,53,0.00
2011,08,02,05,54,0.00
2011,08,02,05,55,3.90
2011,08,02,05,56,5.00
2011,08,02,05,57,5.00
2011,08,02,05,58,5.00
2011,08,02,05,59,5.00
2011,08,02,06,00,5.00
2011,08,02,06,01,5.00
2011,08,02,06,02,7.00
2011,08,02,06,03,7.00
2011,08,02,06,04,7.80
2011,08,02,06,05,9.00
2011,08,02,06,06,9.00
2011,08,02,06,07,10.60
2011,08,02,06,08,11.10
2011,08,02,06,09,12.00
2011,08,02,06,10,12.00
2011,08,02,06,11,13.20
2011,08,02,06,12,14.00
2011,08,02,06,13,14.00
2011,08,02,06,14,14.00
2011,08,02,06,15,14.00
2011,08,02,06,16,14.00
2011,08,02,06,17,14.00
2011,08,02,06,18,14.00
2011,08,02,06,19,14.00
2011,08,02,06,20,14.00
2011,08,02,06,21,14.00
2011,08,02,06,22,15.00
2011,08,02,06,23,16.00
2011,08,02,06,24,17.50
2011,08,02,06,25,18.00
2011,08,02,06,26,18.00
2011,08,02,06,27,18.30
2011,08,02,06,28,19.00
2011,08,02,06,29,19.00
2011,08,02,06,30,19.00
2011,08,02,06,31,19.10
2011,08,02,06,32,21.00
2011,08,02,06,33,21.00
2011,08,02,06,34,21.00
2011,08,02,06,35,21.00
2011,08,02,06,36,21.00
2011,08,02,06,37,21.00
2011,08,02,06,38,21.40
2011,08,02,06,39,23.80
2011,08,02,06,40,25.00
2011,08,02,06,41,27.00
2011,08,02,06,42,28.00
2011,08,02,06,43,30.10
2011,08,02,06,44,32.30
2011,08,02,06,45,33.00
2011,08,02,06,46,34.10
2011,08,02,06,47,35.00
2011,08,02,06,48,35.00
2011,08,02,06,49,36.90
2011,08,02,06,50,37.00
2011,08,02,06,51,37.00
2011,08,02,06,52,38.00
2011,08,02,06,53,39.00
2011,08,02,06,54,41.60
2011,08,02,06,55,40.20
2011,08,02,06,56,42.00
2011,08,02,06,57,42.00
2011,08,02,06,58,43.20
2011,08,02,06,59,44.00
2011,08,02,07,00,45.70
2011,08,02,07,01,47.00
2011,08,02,07,02,47.60
2011,08,02,07,03,49.00
2011,08,02,07,04,49.00
2011,08,02,07,05,49.00
2011,08,02,07,06,65.30
2011,08,02,07,07,62.70
2011,08,02,07,08,48.30
2011,08,02,07,09,47.00
2011,08,02,07,10,47.00
2011,08,02,07,11,47.00
2011,08,02,07,12,47.00
2011,08,02,07,13,47.40
2011,08,02,07,14,49.70
2011,08,02,07,15,52.00
2011,08,02,07,16,53.00
2011,08,02,07,17,55.30
2011,08,02,07,18,57.80
2011,08,02,07,19,58.90
2011,08,02,07,20,62.40
2011,08,02,07,21,63.00
2011,08,02,07,22,64.30
2011,08,02,07,23,66.50
2011,08,02,07,24,67.00
2011,08,02,07,25,67.50
2011,08,02,07,26,69.40
2011,08,02,07,27,70.00
2011,08,02,07,28,71.30
2011,08,02,07,29,75.30
2011,08,02,07,30,77.20
2011,08,02,07,31,79.50
2011,08,02,07,32,81.00
2011,08,02,07,33,82.10
2011,08,02,07,34,83.70
2011,08,02,07,35,85.70
2011,08,02,07,36,86.30
2011,08,02,07,37,88.60
2011,08,02,07,38,90.40
2011,08,02,07,39,92.10
2011,08,02,07,40,94.40
2011,08,02,07,41,96.70
2011,08,02,07,42,98.00
2011,08,02,07,43,98.60
2011,08,02,07,44,100.00
2011,08,02,07,45,100.00
2011,08,02,07,46,100.00
2011,08,02,07,47,100.00
2011,08,02,07,48,100.00
2011,08,02,07,49,100.70
2011,08,02,07,50,103.50
2011,08,02,07,51,118.00
2011,08,02,07,52,110.50
2011,08,02,07,53,108.80
2011,08,02,07,54,114.20
2011,08,02,07,55,119.80
2011,08,02,07,56,125.00
2011,08,02,07,57,128.90
2011,08,02,07,58,133.10
2011,08,02,07,59,135.00
2011,08,02,08,00,135.90
2011,08,02,08,01,139.00
2011,08,02,08,02,139.00
2011,08,02,08,03,140.40
2011,08,02,08,04,141.80
2011,08,02,08,05,144.30
2011,08,02,08,06,148.70
2011,08,02,08,07,151.00
2011,08,02,08,08,151.00
2011,08,02,08,09,161.40
2011,08,02,08,10,171.30
2011,08,02,08,11,176.10
2011,08,02,08,12,178.00
2011,08,02,08,13,178.40
2011,08,02,08,14,181.20
2011,08,02,08,15,189.50
2011,08,02,08,16,194.50
2011,08,02,08,17,193.00
2011,08,02,08,18,194.20
2011,08,02,08,19,199.20
2011,08,02,08,20,206.00
2011,08,02,08,21,217.50
2011,08,02,08,22,278.40
2011,08,02,08,23,293.20
2011,08,02,08,24,292.00
2011,08,02,08,25,245.70
2011,08,02,08,26,232.30
2011,08,02,08,27,237.90
2011,08,02,08,28,297.30
2011,08,02,08,29,325.80
2011,08,02,08,30,244.00
2011,08,02,08,31,261.70
2011,08,02,08,32,241.60
2011,08,02,08,33,212.80
2011,08,02,08,34,229.00
2011,08,02,08,35,258.10
2011,08,02,08,36,333.20
2011,08,02,08,37,349.50
2011,08,02,08,38,333.80
2011,08,02,08,39,393.90
2011,08,02,08,40,411.30
2011,08,02,08,41,418.60
2011,08,02,08,42,362.10
2011,08,02,08,43,323.00
2011,08,02,08,44,360.20
2011,08,02,08,45,351.90
2011,08,02,08,46,350.90
2011,08,02,08,47,334.00
2011,08,02,08,48,343.00
2011,08,02,08,49,343.50
2011,08,02,08,50,333.40
2011,08,02,08,51,334.00
2011,08,02,08,52,374.10
2011,08,02,08,53,360.00
2011,08,02,08,54,299.80
2011,08,02,08,55,287.60
2011,08,02,08,56,283.20
2011,08,02,08,57,267.10
2011,08,02,08,58,256.00
2011,08,02,08,59,246.70
2011,08,02,09,00,236.10
2011,08,02,09,01,229.20
2011,08,02,09,02,227.00
2011,08,02,09,03,227.00
2011,08,02,09,04,219.30
2011,08,02,09,05,216.00
2011,08,02,09,06,216.90
2011,08,02,09,07,219.20
2011,08,02,09,08,223.70
2011,08,02,09,09,230.00
2011,08,02,09,10,240.30
2011,08,02,09,11,248.70
2011,08,02,09,12,257.50
2011,08,02,09,13,263.00
2011,08,02,09,14,269.60
2011,08,02,09,15,272.00
2011,08,02,09,16,274.00
2011,08,02,09,17,273.00
2011,08,02,09,18,268.10
2011,08,02,09,19,261.70
2011,08,02,09,20,257.70
2011,08,02,09,21,253.30
2011,08,02,09,22,254.10
2011,08,02,09,23,259.60
2011,08,02,09,24,263.60
2011,08,02,09,25,266.30
2011,08,02,09,26,267.00
2011,08,02,09,27,266.60
2011,08,02,09,28,260.10
2011,08,02,09,29,252.50
2011,08,02,09,30,244.20
2011,08,02,09,31,234.70
2011,08,02,09,32,224.60
2011,08,02,09,33,213.50
2011,08,02,09,34,207.00
2011,08,02,09,35,195.30
2011,08,02,09,36,179.00
2011,08,02,09,37,167.20
2011,08,02,09,38,158.70
2011,08,02,09,39,155.00
2011,08,02,09,40,155.30
2011,08,02,09,41,156.90
2011,08,02,09,42,159.20
2011,08,02,09,43,163.50
2011,08,02,09,44,171.10
2011,08,02,09,45,178.70
2011,08,02,09,46,183.60
2011,08,02,09,47,185.00
2011,08,02,09,48,182.60
2011,08,02,09,49,175.80
2011,08,02,09,50,167.30
2011,08,02,09,51,160.00
2011,08,02,09,52,157.30
2011,08,02,09,53,151.90
2011,08,02,09,54,157.60
2011,08,02,09,55,172.50
2011,08,02,09,56,206.90
2011,08,02,09,57,267.00
2011,08,02,09,58,283.70
2011,08,02,09,59,304.00
2011,08,02,10,00,302.80
2011,08,02,10,01,309.00
2011,08,02,10,02,314.60
2011,08,02,10,03,392.20
2011,08,02,10,04,425.30
2011,08,02,10,05,362.90
2011,08,02,10,06,355.60
2011,08,02,10,07,355.30
2011,08,02,10,08,357.50
2011,08,02,10,09,364.00
2011,08,02,10,10,364.00
2011,08,02,10,11,366.50
2011,08,02,10,12,373.70
2011,08,02,10,13,376.00
2011,08,02,10,14,391.50
2011,08,02,10,15,384.40
2011,08,02,10,16,397.00
2011,08,02,10,17,393.00
2011,08,02,10,18,388.60
2011,08,02,10,19,388.00
2011,08,02,10,20,370.70
2011,08,02,10,21,370.20
2011,08,02,10,22,366.00
2011,08,02,10,23,349.90
2011,08,02,10,24,334.10
2011,08,02,10,25,317.80
2011,08,02,10,26,311.80
2011,08,02,10,27,317.20
2011,08,02,10,28,322.10
2011,08,02,10,29,330.50
2011,08,02,10,30,341.90
2011,08,02,10,31,355.80
2011,08,02,10,32,367.70
2011,08,02,10,33,379.30
2011,08,02,10,34,384.10
2011,08,02,10,35,383.00
2011,08,02,10,36,402.30
2011,08,02,10,37,427.10
2011,08,02,10,38,429.00
2011,08,02,10,39,423.40
2011,08,02,10,40,412.00
2011,08,02,10,41,403.70
2011,08,02,10,42,391.60
2011,08,02,10,43,381.70
2011,08,02,10,44,380.20
2011,08,02,10,45,382.50
2011,08,02,10,46,385.00
2011,08,02,10,47,383.70
2011,08,02,10,48,384.60
2011,08,02,10,49,384.00
2011,08,02,10,50,391.10
2011,08,02,10,51,391.00
2011,08,02,10,52,400.30
2011,08,02,10,53,423.30
2011,08,02,10,54,490.50
2011,08,02,10,55,503.90
2011,08,02,10,56,530.60
2011,08,02,10,57,589.00
2011,08,02,10,58,528.90
2011,08,02,10,59,474.50
2011,08,02,11,00,473.00
2011,08,02,11,01,543.00
2011,08,02,11,02,567.20
2011,08,02,11,03,611.70
2011,08,02,11,04,566.40
2011,08,02,11,05,522.10
2011,08,02,11,06,520.80
2011,08,02,11,07,550.70
2011,08,02,11,08,512.00
2011,08,02,11,09,488.00
2011,08,02,11,10,482.90
2011,08,02,11,11,531.00
2011,08,02,11,12,492.20
2011,08,02,11,13,473.30
2011,08,02,11,14,504.70
2011,08,02,11,15,550.30
2011,08,02,11,16,526.50
2011,08,02,11,17,528.00
2011,08,02,11,18,509.00
2011,08,02,11,19,505.30
2011,08,02,11,20,510.00
2011,08,02,11,21,517.30
2011,08,02,11,22,528.60
2011,08,02,11,23,522.60
2011,08,02,11,24,557.60
2011,08,02,11,25,561.00
2011,08,02,11,26,561.00
2011,08,02,11,27,510.40
2011,08,02,11,28,462.00
2011,08,02,11,29,459.40
2011,08,02,11,30,443.10
2011,08,02,11,31,429.20
2011,08,02,11,32,461.00
2011,08,02,11,33,461.00
2011,08,02,11,34,461.00
2011,08,02,11,35,446.10
2011,08,02,11,36,531.80
2011,08,02,11,37,536.00
2011,08,02,11,38,520.60
2011,08,02,11,39,499.00
2011,08,02,11,40,499.00
2011,08,02,11,41,499.00
2011,08,02,11,42,499.00
2011,08,02,11,43,499.00
2011,08,02,11,44,499.00
2011,08,02,11,45,499.00
2011,08,02,11,46,598.00
2011,08,02,11,47,594.70
2011,08,02,11,48,589.00
2011,08,02,11,49,593.30
2011,08,02,11,50,598.20
2011,08,02,11,51,619.40
2011,08,02,11,52,635.00
2011,08,02,11,53,635.00
2011,08,02,11,54,691.20
2011,08,02,11,55,951.30
2011,08,02,11,56,931.30
2011,08,02,11,57,916.50
2011,08,02,11,58,909.50
2011,08,02,11,59,904.30
2011,08,02,12,00,899.20
2011,08,02,12,01,894.90
2011,08,02,12,02,893.00
2011,08,02,12,03,891.80
2011,08,02,12,04,887.10
2011,08,02,12,05,882.40
2011,08,02,12,06,881.80
2011,08,02,12,07,880.30
2011,08,02,12,08,878.00
2011,08,02,12,09,875.70
2011,08,02,12,10,876.70
2011,08,02,12,11,877.00
2011,08,02,12,12,877.00
2011,08,02,12,13,867.60
2011,08,02,12,14,868.10
2011,08,02,12,15,882.00
2011,08,02,12,16,883.70
2011,08,02,12,17,886.20
2011,08,02,12,18,888.30
2011,08,02,12,19,890.80
2011,08,02,12,20,893.00
2011,08,02,12,21,893.00
2011,08,02,12,22,895.60
2011,08,02,12,23,900.30
2011,08,02,12,24,902.90
2011,08,02,12,25,905.80
2011,08,02,12,26,905.90
2011,08,02,12,27,901.50
2011,08,02,12,28,880.00
2011,08,02,12,29,877.00
2011,08,02,12,30,886.30
2011,08,02,12,31,905.00
2011,08,02,12,32,904.40
2011,08,02,12,33,904.00
2011,08,02,12,34,904.00
2011,08,02,12,35,905.30
2011,08,02,12,36,907.60
2011,08,02,12,37,910.00
2011,08,02,12,38,914.00
2011,08,02,12,39,918.20
2011,08,02,12,40,931.70
2011,08,02,12,41,933.00
2011,08,02,12,42,801.50
2011,08,02,12,43,555.00
2011,08,02,12,44,789.40
2011,08,02,12,45,928.40
2011,08,02,12,46,928.40
2011,08,02,12,47,934.50
2011,08,02,12,48,944.10
2011,08,02,12,49,953.60
2011,08,02,12,50,962.00
2011,08,02,12,51,969.10
2011,08,02,12,52,977.30
2011,08,02,12,53,986.00
2011,08,02,12,54,999.30
2011,08,02,12,55,1019.00
2011,08,02,12,56,1016.70
2011,08,02,12,57,1007.70
2011,08,02,12,58,1005.80
2011,08,02,12,59,993.90
2011,08,02,13,00,983.90
2011,08,02,13,01,978.60
2011,08,02,13,02,976.30
2011,08,02,13,03,957.70
2011,08,02,13,04,965.00
2011,08,02,13,05,960.30
2011,08,02,13,06,947.70
2011,08,02,13,07,946.00
2011,08,02,13,08,946.70
2011,08,02,13,09,946.10
2011,08,02,13,10,947.30
2011,08,02,13,11,949.00
2011,08,02,13,12,949.00
2011,08,02,13,13,949.00
2011,08,02,13,14,949.00
2011,08,02,13,15,942.80
2011,08,02,13,16,938.20
2011,08,02,13,17,933.30
2011,08,02,13,18,928.10
2011,08,02,13,19,925.40
2011,08,02,13,20,925.70
2011,08,02,13,21,926.10
2011,08,02,13,22,928.80
2011,08,02,13,23,932.30
2011,08,02,13,24,936.50
2011,08,02,13,25,944.30
2011,08,02,13,26,952.50
2011,08,02,13,27,962.20
2011,08,02,13,28,974.00
2011,08,02,13,29,985.90
2011,08,02,13,30,999.10
2011,08,02,13,31,1010.40
2011,08,02,13,32,1017.20
2011,08,02,13,33,1019.90
2011,08,02,13,34,1019.50
2011,08,02,13,35,1018.00
2011,08,02,13,36,1018.00
2011,08,02,13,37,1021.30
2011,08,02,13,38,1032.10
2011,08,02,13,39,1054.00
2011,08,02,13,40,1091.40
2011,08,02,13,41,1145.30
2011,08,02,13,42,1183.00
2011,08,02,13,43,1183.00
2011,08,02,13,44,766.70
2011,08,02,13,45,737.00
2011,08,02,13,46,737.00
2011,08,02,13,47,737.00
2011,08,02,13,48,737.00
2011,08,02,13,49,737.00
2011,08,02,13,50,737.00
2011,08,02,13,51,1239.00
2011,08,02,13,52,1227.70
2011,08,02,13,53,1202.00
2011,08,02,13,54,1202.00
2011,08,02,13,55,1202.00
2011,08,02,13,56,482.80
2011,08,02,13,57,380.00
2011,08,02,13,58,380.00
2011,08,02,13,59,380.00
2011,08,02,14,00,679.70
2011,08,02,14,01,851.00
2011,08,02,14,02,1045.70
2011,08,02,14,03,1043.20
2011,08,02,14,04,1019.40
2011,08,02,14,05,1003.50
2011,08,02,14,06,994.70
2011,08,02,14,07,996.80
2011,08,02,14,08,1010.50
2011,08,02,14,09,1032.00
2011,08,02,14,10,1032.00
2011,08,02,14,11,1032.00
2011,08,02,14,12,1032.00
2011,08,02,14,13,1032.00
2011,08,02,14,14,1032.00
2011,08,02,14,15,893.50
2011,08,02,14,16,478.00
2011,08,02,14,17,478.00
2011,08,02,14,18,478.00
2011,08,02,14,19,400.30
2011,08,02,14,20,383.00
2011,08,02,14,21,432.00
2011,08,02,14,22,580.00
2011,08,02,14,23,594.00
2011,08,02,14,24,594.00
2011,08,02,14,25,884.90
2011,08,02,14,26,914.00
2011,08,02,14,27,733.70
2011,08,02,14,28,262.10
2011,08,02,14,29,313.00
2011,08,02,14,30,313.00
2011,08,02,14,31,868.30
2011,08,02,14,32,942.30
2011,08,02,14,33,885.60
2011,08,02,14,34,887.70
2011,08,02,14,35,856.00
2011,08,02,14,36,856.00
2011,08,02,14,37,856.00
2011,08,02,14,38,856.00
2011,08,02,14,39,856.00
2011,08,02,14,40,856.00
2011,08,02,14,41,856.00
2011,08,02,14,42,856.00
2011,08,02,14,43,856.00
2011,08,02,14,44,757.70
2011,08,02,14,45,420.00
2011,08,02,14,46,450.00
2011,08,02,14,47,450.00
2011,08,02,14,48,406.20
2011,08,02,14,49,394.00
2011,08,02,14,50,394.00
2011,08,02,14,51,394.00
2011,08,02,14,52,394.00
2011,08,02,14,53,394.00
2011,08,02,14,54,394.00
2011,08,02,14,55,394.00
2011,08,02,14,56,406.30
2011,08,02,14,57,441.00
2011,08,02,14,58,733.20
2011,08,02,14,59,964.30
2011,08,02,15,00,958.00
2011,08,02,15,01,953.00
2011,08,02,15,02,928.50
2011,08,02,15,03,916.30
2011,08,02,15,04,910.50
2011,08,02,15,05,906.20
2011,08,02,15,06,904.20
2011,08,02,15,07,894.20
2011,08,02,15,08,886.70
2011,08,02,15,09,878.00
2011,08,02,15,10,870.00
2011,08,02,15,11,864.20
2011,08,02,15,12,860.30
2011,08,02,15,13,855.50
2011,08,02,15,14,853.30
2011,08,02,15,15,854.00
2011,08,02,15,16,853.40
2011,08,02,15,17,819.00
2011,08,02,15,18,849.90
2011,08,02,15,19,853.80
2011,08,02,15,20,852.30
2011,08,02,15,21,847.70
2011,08,02,15,22,840.30
2011,08,02,15,23,835.80
2011,08,02,15,24,833.10
2011,08,02,15,25,830.80
2011,08,02,15,26,829.30
2011,08,02,15,27,826.20
2011,08,02,15,28,823.30
2011,08,02,15,29,821.50
2011,08,02,15,30,822.90
2011,08,02,15,31,824.10
2011,08,02,15,32,832.20
2011,08,02,15,33,857.50
2011,08,02,15,34,875.00
2011,08,02,15,35,865.70
2011,08,02,15,36,832.30
2011,08,02,15,37,829.00
2011,08,02,15,38,825.20
2011,08,02,15,39,824.00
2011,08,02,15,40,820.60
2011,08,02,15,41,814.90
2011,08,02,15,42,805.10
2011,08,02,15,43,802.00
2011,08,02,15,44,801.20
2011,08,02,15,45,800.00
2011,08,02,15,46,797.20
2011,08,02,15,47,768.50
2011,08,02,15,48,788.40
2011,08,02,15,49,766.80
2011,08,02,15,50,708.00
2011,08,02,15,51,708.00
2011,08,02,15,52,708.00
2011,08,02,15,53,708.00
2011,08,02,15,54,708.00
2011,08,02,15,55,748.90
2011,08,02,15,56,851.00
2011,08,02,15,57,655.40
2011,08,02,15,58,520.00
2011,08,02,15,59,519.00
2011,08,02,16,00,511.10
2011,08,02,16,01,572.10
2011,08,02,16,02,561.00
2011,08,02,16,03,495.90
2011,08,02,16,04,452.50
2011,08,02,16,05,458.20
2011,08,02,16,06,455.00
2011,08,02,16,07,455.00
2011,08,02,16,08,442.60
2011,08,02,16,09,430.90
2011,08,02,16,10,433.60
2011,08,02,16,11,434.00
2011,08,02,16,12,427.20
2011,08,02,16,13,394.50
2011,08,02,16,14,373.00
2011,08,02,16,15,362.40
2011,08,02,16,16,354.20
2011,08,02,16,17,348.00
2011,08,02,16,18,344.00
2011,08,02,16,19,341.80
2011,08,02,16,20,343.00
2011,08,02,16,21,341.70
2011,08,02,16,22,350.90
2011,08,02,16,23,343.20
2011,08,02,16,24,341.00
2011,08,02,16,25,341.00
2011,08,02,16,26,339.90
2011,08,02,16,27,336.90
2011,08,02,16,28,332.70
2011,08,02,16,29,328.50
2011,08,02,16,30,324.50
2011,08,02,16,31,322.60
2011,08,02,16,32,322.00
2011,08,02,16,33,319.20
2011,08,02,16,34,316.30
2011,08,02,16,35,314.70
2011,08,02,16,36,311.80
2011,08,02,16,37,307.60
2011,08,02,16,38,303.60
2011,08,02,16,39,299.80
2011,08,02,16,40,295.40
2011,08,02,16,41,291.30
2011,08,02,16,42,288.00
2011,08,02,16,43,288.00
2011,08,02,16,44,281.80
2011,08,02,16,45,274.90
2011,08,02,16,46,271.20
2011,08,02,16,47,268.60
2011,08,02,16,48,267.00
2011,08,02,16,49,267.00
2011,08,02,16,50,267.00
2011,08,02,16,51,267.00
2011,08,02,16,52,266.80
2011,08,02,16,53,264.80
2011,08,02,16,54,262.40
2011,08,02,16,55,259.00
2011,08,02,16,56,257.30
2011,08,02,16,57,255.40
2011,08,02,16,58,254.80
2011,08,02,16,59,253.00
2011,08,02,17,00,252.20
2011,08,02,17,01,250.50
2011,08,02,17,02,247.20
2011,08,02,17,03,244.30
2011,08,02,17,04,240.90
2011,08,02,17,05,239.00
2011,08,02,17,06,238.20
2011,08,02,17,07,236.50
2011,08,02,17,08,236.00
2011,08,02,17,09,234.30